When you browse on this site, cookies collect data to enhance your experience and personalize the content and advertising you see.
Visit our Privacy Policy to learn more. By continuing to use the site, you agree to this use of cookies and data.
  • In Slovakia
  • List of Countries
  • For 7 days
  • Water Temperature
  • Weather Map
  • Weather Widgets
  • user-avatar
    Login

    Hourly Weather Armawir

    Today, 26 May, Tuesday

    Time Temperature Precipitation Wind Pressure Humidity
    00:00 +13°C° 0 mm 2 mps 689 mmHg 64%
    01:00 +12°C° 0 mm 2 mps 689 mmHg 66%
    02:00 +12°C° 0 mm 2 mps 689 mmHg 67%
    03:00 +12°C° 0 mm 1 mps 689 mmHg 69%
    04:00 +12°C° 0 mm 1 mps 689 mmHg 68%
    05:00 +13°C° 0 mm 1 mps 689 mmHg 66%
    06:00 +14°C° 0 mm 1 mps 690 mmHg 65%
    07:00 +15°C° 0 mm 1 mps 690 mmHg 60%
    08:00 +18°C° 0 mm 1 mps 690 mmHg 54%
    09:00 +20°C° 0 mm 1 mps 691 mmHg 49%
    10:00 +21°C° 0 mm 1 mps 691 mmHg 45%
    11:00 +22°C° 0 mm 1 mps 690 mmHg 41%
    12:00 +23°C° 0 mm 1 mps 690 mmHg 37%
    13:00 +24°C° 0 mm 1 mps 690 mmHg 36%
    14:00 +25°C° 0 mm 1 mps 690 mmHg 34%
    15:00 +26°C° 0 mm 1 mps 690 mmHg 33%
    16:00 +25°C° 0 mm 1 mps 690 mmHg 35%
    17:00 +25°C° 0 mm 1 mps 690 mmHg 37%
    18:00 +25°C° 0 mm 1 mps 690 mmHg 39%
    19:00 +23°C° 0 mm 1 mps 690 mmHg 43%
    20:00 +21°C° 0 mm 1 mps 690 mmHg 48%
    21:00 +19°C° 0 mm 1 mps 690 mmHg 52%
    22:00 +19°C° 0 mm 1 mps 690 mmHg 52%
    23:00 +18°C° 0 mm 1 mps 690 mmHg 51%

    Tomorrow, 27 May, Wednesday

    Time Temperature Precipitation Wind Pressure Humidity
    00:00 +18°C° 0 mm 1 mps 690 mmHg 51%
    01:00 +18°C° 0 mm 1 mps 690 mmHg 53%
    02:00 +16°C° 0 mm 1 mps 690 mmHg 55%
    03:00 +16°C° 0 mm 1 mps 689 mmHg 56%
    04:00 +16°C° 0 mm 1 mps 690 mmHg 58%
    05:00 +18°C° 0 mm 1 mps 690 mmHg 59%
    06:00 +19°C° 0 mm 1 mps 691 mmHg 60%
    07:00 +21°C° 0 mm 1 mps 691 mmHg 54%
    08:00 +23°C° 0 mm 1 mps 691 mmHg 48%
    09:00 +24°C° 0 mm 1 mps 691 mmHg 42%
    10:00 +26°C° 0 mm 1 mps 691 mmHg 39%
    11:00 +27°C° 0 mm 2 mps 691 mmHg 36%
    12:00 +28°C° 0 mm 2 mps 691 mmHg 33%
    13:00 +29°C° 0 mm 2 mps 691 mmHg 32%
    14:00 +29°C° 0 mm 2 mps 691 mmHg 30%
    15:00 +30°C° 0 mm 2 mps 691 mmHg 29%
    16:00 +30°C° 0 mm 1 mps 691 mmHg 32%
    17:00 +29°C° 0 mm 1 mps 690 mmHg 35%
    18:00 +29°C° 0 mm 1 mps 690 mmHg 38%
    19:00 +27°C° 0 mm 1 mps 690 mmHg 41%
    20:00 +25°C° 0 mm 1 mps 690 mmHg 43%
    21:00 +23°C° 0 mm 1 mps 690 mmHg 45%
    22:00 +22°C° 0 mm 1 mps 690 mmHg 46%
    23:00 +21°C° 0 mm 1 mps 690 mmHg 47%

    Day after tomorrow, 28 May, Thursday

    Time Temperature Precipitation Wind Pressure Humidity
    00:00 +21°C° 0 mm 1 mps 690 mmHg 48%
    01:00 +20°C° 0 mm 1 mps 690 mmHg 49%
    02:00 +20°C° 0 mm 1 mps 689 mmHg 50%
    03:00 +19°C° 0 mm 1 mps 689 mmHg 52%
    04:00 +20°C° 0 mm 1 mps 689 mmHg 53%
    05:00 +21°C° 0 mm 1 mps 689 mmHg 55%
    06:00 +21°C° 0 mm 1 mps 689 mmHg 56%
    07:00 +23°C° 0 mm 1 mps 689 mmHg 50%
    08:00 +25°C° 0 mm 1 mps 690 mmHg 44%
    09:00 +27°C° 0 mm 1 mps 690 mmHg 38%
    10:00 +28°C° 0 mm 1 mps 689 mmHg 35%
    11:00 +30°C° 0 mm 1 mps 689 mmHg 32%
    12:00 +31°C° 0 mm 1 mps 689 mmHg 29%
    13:00 +32°C° 0 mm 2 mps 689 mmHg 27%
    14:00 +32°C° 0 mm 2 mps 688 mmHg 25%
    15:00 +34°C° 0 mm 2 mps 688 mmHg 23%
    16:00 +30°C° 0.4 mm 3 mps 688 mmHg 33%
    17:00 +28°C° 0.4 mm 3 mps 687 mmHg 43%
    18:00 +25°C° 0.4 mm 3 mps 686 mmHg 53%
    19:00 +22°C° 0.4 mm 3 mps 687 mmHg 59%
    20:00 +21°C° 0.4 mm 2 mps 687 mmHg 65%
    21:00 +19°C° 0.4 mm 2 mps 687 mmHg 71%
    22:00 +20°C° 0.3 mm 1 mps 687 mmHg 70%
    23:00 +19°C° 0.3 mm 1 mps 686 mmHg 70%

    29 May, Friday

    Time Temperature Precipitation Wind Pressure Humidity
    00:00 +19°C° 0.3 mm 1 mps 686 mmHg 70%
    01:00 +19°C° 0 mm 1 mps 686 mmHg 71%
    02:00 +18°C° 0 mm 1 mps 685 mmHg 72%
    03:00 +18°C° 0 mm 1 mps 685 mmHg 72%
    04:00 +19°C° 0 mm 1 mps 685 mmHg 69%
    05:00 +19°C° 0 mm 1 mps 685 mmHg 66%
    06:00 +20°C° 0 mm 1 mps 685 mmHg 63%
    07:00 +22°C° 0 mm 1 mps 685 mmHg 57%
    08:00 +24°C° 0 mm 1 mps 684 mmHg 51%
    09:00 +26°C° 0 mm 1 mps 684 mmHg 44%
    10:00 +27°C° 0 mm 2 mps 684 mmHg 41%
    11:00 +29°C° 0 mm 2 mps 684 mmHg 38%
    12:00 +30°C° 0 mm 2 mps 684 mmHg 35%
    13:00 +31°C° 0 mm 2 mps 684 mmHg 32%
    14:00 +32°C° 0 mm 2 mps 684 mmHg 29%
    15:00 +33°C° 0 mm 1 mps 684 mmHg 26%
    16:00 +33°C° 0 mm 3 mps 684 mmHg 26%
    17:00 +32°C° 0 mm 4 mps 684 mmHg 26%
    18:00 +30°C° 0 mm 6 mps 684 mmHg 27%
    19:00 +28°C° 0 mm 5 mps 684 mmHg 29%
    20:00 +26°C° 0 mm 4 mps 684 mmHg 30%
    21:00 +23°C° 0 mm 4 mps 685 mmHg 32%
    22:00 +22°C° 0 mm 4 mps 685 mmHg 33%
    23:00 +21°C° 0 mm 4 mps 685 mmHg 33%

    30 May, Saturday

    Time Temperature Precipitation Wind Pressure Humidity
    00:00 +20°C° 0 mm 3 mps 685 mmHg 33%
    01:00 +20°C° 0 mm 4 mps 685 mmHg 33%
    02:00 +19°C° 0 mm 4 mps 685 mmHg 34%
    03:00 +19°C° 0 mm 4 mps 685 mmHg 34%
    04:00 +19°C° 0 mm 4 mps 685 mmHg 36%
    05:00 +18°C° 0 mm 3 mps 685 mmHg 39%
    06:00 +18°C° 0 mm 3 mps 686 mmHg 41%
    07:00 +20°C° 0 mm 4 mps 686 mmHg 35%
    08:00 +22°C° 0 mm 4 mps 687 mmHg 29%
    09:00 +25°C° 0 mm 4 mps 687 mmHg 23%
    10:00 +26°C° 0 mm 4 mps 687 mmHg 22%
    11:00 +27°C° 0 mm 3 mps 687 mmHg 20%
    12:00 +27°C° 0 mm 3 mps 688 mmHg 18%
    13:00 +28°C° 0 mm 3 mps 688 mmHg 18%
    14:00 +29°C° 0 mm 2 mps 687 mmHg 17%
    15:00 +29°C° 0 mm 2 mps 687 mmHg 16%
    16:00 +29°C° 0 mm 2 mps 688 mmHg 20%
    17:00 +28°C° 0 mm 2 mps 688 mmHg 23%
    18:00 +28°C° 0 mm 2 mps 688 mmHg 27%
    19:00 +25°C° 0 mm 2 mps 688 mmHg 28%
    20:00 +23°C° 0 mm 2 mps 688 mmHg 30%
    21:00 +20°C° 0 mm 2 mps 688 mmHg 32%
    22:00 +19°C° 0 mm 2 mps 688 mmHg 32%
    23:00 +19°C° 0 mm 2 mps 688 mmHg 32%

    31 May, Sunday

    Time Temperature Precipitation Wind Pressure Humidity
    00:00 +18°C° 0 mm 2 mps 688 mmHg 32%
    01:00 +18°C° 0 mm 2 mps 688 mmHg 35%
    02:00 +17°C° 0 mm 2 mps 688 mmHg 38%
    03:00 +16°C° 0 mm 2 mps 688 mmHg 41%
    04:00 +17°C° 0 mm 2 mps 688 mmHg 43%
    05:00 +17°C° 0 mm 2 mps 688 mmHg 45%
    06:00 +18°C° 0 mm 2 mps 689 mmHg 47%
    07:00 +20°C° 0 mm 2 mps 689 mmHg 42%
    08:00 +23°C° 0 mm 2 mps 689 mmHg 37%
    09:00 +25°C° 0 mm 2 mps 689 mmHg 31%
    10:00 +26°C° 0 mm 2 mps 689 mmHg 28%
    11:00 +28°C° 0 mm 1 mps 689 mmHg 25%
    12:00 +29°C° 0 mm 1 mps 690 mmHg 22%
    13:00 +29°C° 0 mm 1 mps 689 mmHg 22%
    14:00 +30°C° 0 mm 1 mps 689 mmHg 21%
    15:00 +30°C° 0 mm 1 mps 689 mmHg 21%
    16:00 +30°C° 0 mm 1 mps 689 mmHg 24%
    17:00 +30°C° 0 mm 1 mps 688 mmHg 27%
    18:00 +30°C° 0 mm 1 mps 688 mmHg 29%
    19:00 +27°C° 0 mm 1 mps 688 mmHg 32%
    20:00 +25°C° 0 mm 1 mps 688 mmHg 34%
    21:00 +22°C° 0 mm 1 mps 688 mmHg 36%
    22:00 +22°C° 0 mm 1 mps 688 mmHg 38%
    23:00 +21°C° 0 mm 1 mps 688 mmHg 40%
    Show more